Find Starlink 30822

NORAD ID: 58193 Int'l Des: 2023-167 Owner: SPXS Country: US Constellation: starlink operational
LEOCIRCULAR

Current View

Loading 3D Globe...

About Starlink 30822

Starlink 30822 (NORAD 58193) is a starlink constellation satellite (v2 mini) launched Oct 30, 2023 by SPXS of US. It operates in LEO, CIRCULAR orbit with a mass of 730.00 kg.

Upcoming Passes

Passes for default location (London). Set your location on the main map for personalized predictions.

Altitude History

Loading altitude history...

Two-Line Element Set

1 58193U 23167U 26264.03580410 .00030770 00000-0 10310-2 0 9990
2 58193 43.0001 119.9366 0004642 259.4472 100.5858 15.30359820160864
Epoch: Sep 21, 2026 • Age: 12 hours

Current Status

Altitude 478.5 km
Apogee / Perigee N/A
Velocity 7.63 km/s
Sub-Earth Point 34.77°N, 63.63°E
Launch Date Oct 30, 2023
Age 2.8 years
Type internet

Technical Details

Classification Payload
Mass 730.00 kg
Dry Mass 700.00 kg
Length 0.30 m
Span 29.00 m
Shape ? Box + pan
Manufacturer SPXS
Bus Type Starlink V2M
Phase Status In Orbit
Owner/State SPXS/US

Most Searched